When you browse on this site, cookies collect data to enhance your experience and personalize the content and advertising you see.
Visit our Privacy Policy to learn more. By continuing to use the site, you agree to this use of cookies and data.
  • en France
  • Liste des pays
  • À 7 jours
  • Température de l'eau
  • Carte météo
  • Widgets météo
  • user-avatar
    Se connecter

    Météo par heure à Smychka

    Ce jour, 25 Février, Mardi

    Heure Température Précipitation Vent Pression Humidité
    00:00 -4°C° 0 mm 5 m/s 731 mmHg 84%
    01:00 -4°C° 0 mm 5 m/s 732 mmHg 82%
    02:00 -4°C° 0 mm 5 m/s 732 mmHg 81%
    03:00 -4°C° 0 mm 5 m/s 732 mmHg 80%
    04:00 -5°C° 0 mm 5 m/s 733 mmHg 80%
    05:00 -5°C° 0 mm 5 m/s 733 mmHg 80%
    06:00 -5°C° 0 mm 5 m/s 733 mmHg 79%
    07:00 -5°C° 0 mm 5 m/s 734 mmHg 79%
    08:00 -5°C° 0 mm 5 m/s 734 mmHg 79%
    09:00 -4°C° 0 mm 5 m/s 734 mmHg 75%
    10:00 -2°C° 0 mm 5 m/s 735 mmHg 71%
    11:00 -1°C° 0 mm 5 m/s 735 mmHg 67%
    12:00 -1°C° 0 mm 5 m/s 735 mmHg 65%
    13:00 0°C° 0 mm 4 m/s 735 mmHg 64%
    14:00 0°C° 0 mm 4 m/s 735 mmHg 62%
    15:00 -1°C° 0 mm 4 m/s 735 mmHg 66%
    16:00 -1°C° 0 mm 3 m/s 735 mmHg 70%
    17:00 -2°C° 0 mm 3 m/s 735 mmHg 74%
    18:00 -2°C° 0 mm 3 m/s 735 mmHg 76%
    19:00 -2°C° 0 mm 3 m/s 735 mmHg 79%
    20:00 -4°C° 0 mm 3 m/s 735 mmHg 81%
    21:00 -4°C° 0 mm 4 m/s 735 mmHg 84%
    22:00 -4°C° 0 mm 4 m/s 735 mmHg 86%
    23:00 -4°C° 0 mm 4 m/s 735 mmHg 88%

    Demain, 26 Février, Mercredi

    Heure Température Précipitation Vent Pression Humidité
    00:00 -4°C° 0 mm 4 m/s 734 mmHg 89%
    01:00 -4°C° 0 mm 4 m/s 734 mmHg 89%
    02:00 -5°C° 0 mm 5 m/s 734 mmHg 90%
    03:00 -4°C° 0 mm 5 m/s 733 mmHg 90%
    04:00 -4°C° 0 mm 5 m/s 732 mmHg 90%
    05:00 -4°C° 0 mm 5 m/s 732 mmHg 90%
    06:00 -3°C° 0.1 mm 6 m/s 731 mmHg 91%
    07:00 -3°C° 0.1 mm 6 m/s 731 mmHg 93%
    08:00 -3°C° 0.1 mm 6 m/s 730 mmHg 94%
    09:00 -2°C° 0.3 mm 6 m/s 730 mmHg 94%
    10:00 -2°C° 0.3 mm 6 m/s 730 mmHg 94%
    11:00 -2°C° 0.3 mm 6 m/s 729 mmHg 94%
    12:00 -2°C° 0.4 mm 6 m/s 729 mmHg 94%
    13:00 -1°C° 0.4 mm 6 m/s 729 mmHg 95%
    14:00 -1°C° 0.4 mm 6 m/s 729 mmHg 95%
    15:00 -1°C° 0.2 mm 6 m/s 729 mmHg 95%
    16:00 0°C° 0.2 mm 5 m/s 728 mmHg 95%
    17:00 0°C° 0.2 mm 5 m/s 728 mmHg 96%
    18:00 0°C° 0.1 mm 4 m/s 729 mmHg 96%
    19:00 0°C° 0.1 mm 4 m/s 729 mmHg 96%
    20:00 +1°C° 0.1 mm 3 m/s 729 mmHg 97%
    21:00 +1°C° 0.2 mm 3 m/s 729 mmHg 97%
    22:00 +1°C° 0.2 mm 3 m/s 728 mmHg 97%
    23:00 +1°C° 0.2 mm 3 m/s 728 mmHg 97%

    Après-demain, 27 Février, Jeudi

    Heure Température Précipitation Vent Pression Humidité
    00:00 +1°C° 0.7 mm 3 m/s 728 mmHg 97%
    01:00 +1°C° 0.7 mm 3 m/s 728 mmHg 97%
    02:00 +1°C° 0.7 mm 3 m/s 727 mmHg 97%
    03:00 0°C° 0.4 mm 4 m/s 727 mmHg 97%
    04:00 0°C° 0.4 mm 4 m/s 727 mmHg 97%
    05:00 0°C° 0.4 mm 5 m/s 726 mmHg 96%
    06:00 0°C° 0.3 mm 5 m/s 726 mmHg 97%
    07:00 0°C° 0.3 mm 5 m/s 726 mmHg 97%
    08:00 0°C° 0.3 mm 5 m/s 726 mmHg 97%
    09:00 0°C° 0.1 mm 5 m/s 726 mmHg 97%
    10:00 0°C° 0.1 mm 5 m/s 726 mmHg 97%
    11:00 +1°C° 0.1 mm 5 m/s 726 mmHg 97%
    12:00 +1°C° 0.2 mm 4 m/s 726 mmHg 97%
    13:00 +1°C° 0.2 mm 4 m/s 726 mmHg 98%
    14:00 +2°C° 0.2 mm 3 m/s 726 mmHg 98%
    15:00 +1°C° 0.2 mm 3 m/s 726 mmHg 98%
    16:00 +1°C° 0.2 mm 3 m/s 726 mmHg 98%
    17:00 +1°C° 0.2 mm 3 m/s 726 mmHg 98%
    18:00 +2°C° 0.3 mm 2 m/s 726 mmHg 98%
    19:00 +2°C° 0.3 mm 2 m/s 726 mmHg 97%
    20:00 +2°C° 0.3 mm 2 m/s 726 mmHg 97%
    21:00 +2°C° 0.1 mm 2 m/s 726 mmHg 97%
    22:00 +2°C° 0.1 mm 2 m/s 726 mmHg 97%
    23:00 +1°C° 0.1 mm 3 m/s 726 mmHg 98%

    28 Février, Vendredi

    Heure Température Précipitation Vent Pression Humidité
    00:00 0°C° 0.2 mm 3 m/s 726 mmHg 98%
    01:00 0°C° 0.2 mm 3 m/s 725 mmHg 98%
    02:00 0°C° 0.2 mm 3 m/s 725 mmHg 98%
    03:00 -1°C° 1.7 mm 4 m/s 725 mmHg 98%
    04:00 -1°C° 1.7 mm 4 m/s 725 mmHg 98%
    05:00 -2°C° 1.7 mm 5 m/s 724 mmHg 98%
    06:00 -2°C° 0.8 mm 5 m/s 725 mmHg 96%
    07:00 -3°C° 0.8 mm 6 m/s 725 mmHg 94%
    08:00 -3°C° 0.8 mm 6 m/s 725 mmHg 92%
    09:00 -3°C° 0.2 mm 6 m/s 725 mmHg 88%
    10:00 -3°C° 0.2 mm 6 m/s 726 mmHg 84%
    11:00 -2°C° 0.2 mm 6 m/s 726 mmHg 81%
    12:00 -2°C° 0 mm 7 m/s 727 mmHg 77%
    13:00 -2°C° 0 mm 7 m/s 728 mmHg 72%
    14:00 -2°C° 0 mm 7 m/s 729 mmHg 68%
    15:00 -2°C° 0 mm 6 m/s 730 mmHg 69%
    16:00 -3°C° 0 mm 6 m/s 730 mmHg 70%
    17:00 -4°C° 0 mm 5 m/s 731 mmHg 70%
    18:00 -4°C° 0 mm 5 m/s 731 mmHg 72%
    19:00 -4°C° 0 mm 5 m/s 732 mmHg 73%
    20:00 -4°C° 0 mm 5 m/s 733 mmHg 75%
    21:00 -5°C° 0 mm 6 m/s 733 mmHg 74%
    22:00 -5°C° 0 mm 6 m/s 733 mmHg 73%
    23:00 -5°C° 0 mm 6 m/s 734 mmHg 72%

    29 Février, Samedi

    Heure Température Précipitation Vent Pression Humidité
    00:00 -5°C° 0 mm 5 m/s 734 mmHg 73%
    01:00 -5°C° 0 mm 5 m/s 734 mmHg 74%
    02:00 -5°C° 0 mm 5 m/s 735 mmHg 75%
    03:00 -4°C° 0 mm 4 m/s 735 mmHg 77%
    04:00 -4°C° 0 mm 4 m/s 735 mmHg 78%
    05:00 -5°C° 0 mm 4 m/s 735 mmHg 79%
    06:00 -4°C° 0 mm 4 m/s 735 mmHg 78%
    07:00 -4°C° 0 mm 4 m/s 735 mmHg 78%
    08:00 -4°C° 0 mm 4 m/s 736 mmHg 77%
    09:00 -3°C° 0 mm 4 m/s 735 mmHg 75%
    10:00 -2°C° 0 mm 5 m/s 735 mmHg 73%
    11:00 -1°C° 0 mm 5 m/s 735 mmHg 71%
    12:00 -1°C° 0 mm 5 m/s 735 mmHg 73%
    13:00 0°C° 0 mm 4 m/s 735 mmHg 76%
    14:00 0°C° 0 mm 4 m/s 735 mmHg 78%
    15:00 -1°C° 0.1 mm 4 m/s 735 mmHg 83%
    16:00 -1°C° 0.1 mm 4 m/s 735 mmHg 89%
    17:00 -1°C° 0.1 mm 3 m/s 735 mmHg 94%
    18:00 -1°C° 0.4 mm 3 m/s 736 mmHg 92%
    19:00 -2°C° 0.4 mm 3 m/s 736 mmHg 89%
    20:00 -2°C° 0.4 mm 3 m/s 736 mmHg 87%
    21:00 -2°C° 0.1 mm 3 m/s 737 mmHg 83%
    22:00 -4°C° 0.1 mm 3 m/s 737 mmHg 80%
    23:00 -3°C° 0.1 mm 2 m/s 737 mmHg 77%

    1 Mars, Dimanche

    Heure Température Précipitation Vent Pression Humidité
    00:00 -4°C° 0 mm 2 m/s 738 mmHg 78%
    01:00 -4°C° 0 mm 2 m/s 738 mmHg 79%
    02:00 -5°C° 0 mm 2 m/s 738 mmHg 80%
    03:00 -5°C° 0 mm 2 m/s 739 mmHg 83%
    04:00 -5°C° 0 mm 2 m/s 739 mmHg 86%
    05:00 -5°C° 0 mm 2 m/s 739 mmHg 89%
    06:00 -4°C° 0 mm 2 m/s 739 mmHg 89%
    07:00 -4°C° 0 mm 2 m/s 740 mmHg 88%
    08:00 -4°C° 0 mm 2 m/s 740 mmHg 88%
    09:00 -3°C° 0 mm 2 m/s 740 mmHg 85%
    10:00 -2°C° 0 mm 3 m/s 740 mmHg 82%
    11:00 -1°C° 0 mm 3 m/s 740 mmHg 79%
    12:00 -1°C° 0 mm 3 m/s 740 mmHg 77%
    13:00 -1°C° 0 mm 3 m/s 740 mmHg 76%
    14:00 -1°C° 0 mm 4 m/s 739 mmHg 75%
    15:00 -2°C° 0 mm 4 m/s 739 mmHg 78%
    16:00 -2°C° 0 mm 4 m/s 739 mmHg 80%
    17:00 -3°C° 0 mm 4 m/s 739 mmHg 83%
    18:00 -3°C° 0 mm 4 m/s 739 mmHg 84%
    19:00 -4°C° 0 mm 5 m/s 739 mmHg 84%
    20:00 -4°C° 0 mm 5 m/s 739 mmHg 84%
    21:00 -4°C° 0.2 mm 5 m/s 739 mmHg 88%
    22:00 -4°C° 0.2 mm 6 m/s 739 mmHg 91%
    23:00 -4°C° 0.2 mm 6 m/s 739 mmHg 95%
    Voir plus